Simultaneous Nadir Overpasses (SNOs) Predictions

Prediction of SNOs between GOES-15 and METOP-A Satellite Orbit:

Table of predicted SNOs for the next 14.0 days since TLE Epoch: 4/10/2015
Index Date Time (GOES-15) GOES-15 Lat,Lon METOP-A Lat,Lon Distance(km) Time Diff (sec)
1 04/10/2015 18:18:24 0.00,-134.94 -0.71,-131.81 357.50 80
2 04/12/2015 06:37:23 0.00,-134.98 -0.31,-136.40 161.56 80
3 04/13/2015 06:14:03 0.00,-135.01 0.78,-131.40 410.86 80
4 04/14/2015 18:32:54 -0.01,-135.06 0.19,-135.97 103.62 80
5 04/15/2015 18:14:53 -0.00,-135.09 -0.90,-130.97 468.93 80
6 04/17/2015 06:33:53 0.00,-135.13 -0.11,-135.57 50.58 80
7 04/19/2015 18:32:04 -0.00,-135.18 -0.02,-135.14 5.54 80
8 04/22/2015 06:27:42 0.01,-135.24 0.12,-134.74 57.32 80
9 04/23/2015 18:46:33
